Location: *
(40.4000°N, 15.1200°E)
Time: 21:04:26
(UTC+00:00)

APEX - Pass Details

Date: 09 April 2020
Orbit: 331 x 1114 km, 69.9° (Epoch: 23 May)

Event Time Altitude Azimuth Distance (km) Brightness Sun altitude
Rises 18:31:03 0° 336° (NNW) 3,751 8.3 -11.5°
Reaches altitude 10° 18:33:53 10° 338° (NNW) 2,700 7.5 -12.0°
Maximum altitude 18:40:10 76° 64° (ENE) 851 4.1 -13.1°
Enters shadow 18:44:29 14° 149° (SSE) 1,908 5.6 -13.9°
